Home > Weather > Kemerovo > Past weeks

Flag for Russia Past Weather in Kemerovo, Russia — Yesterday and Last 2 Weeks

Now
77 °F

Passing clouds.


Feels Like: 78 °F
Forecast: 60 / 71 °F
Wind: 8 mph from South

Location: Kemerovo

Current Time: Jul 1, 2016 at 4:54:32 PM

Latest Report: Jul 1, 2016 at 4:30 PM


Visibility: N/A

Pressure: 29.53 "Hg

Humidity: 42%

Dew Point: 52 °F

Location of KemerovoLocation

Past Weather in Kemerovo — Graph

°F

Kemerovo Temperature Yesterday

Maximum temperature yesterday: 77 °F (at 4:30 PM)
Minimum temperature yesterday: 61 °F (at 6:30 AM)
Average temperature yesterday: 67 °F

High & Low Weather Summary for the Past Weeks

 TemperatureHumidityPressure
High86 °F (Jun 27, 3:00 PM)100% (Jun 21, 5:30 AM)29.98 "Hg (Jun 21, 5:30 AM)
Low52 °F (Jun 21, 3:30 AM)26% (Jun 21, 5:00 PM)29.56 "Hg (Jul 1, 2:00 PM)
Average67 °F63%29.79 "Hg
* Reported Jun 16 3:00 PM — Jul 1 3:30 PM, Kemerovo, Weather by CustomWeather, © 2016

Note: Actual official high and low records may vary slightly from our data, if they occured in-between our weather recording intervals... More about our weather records

Advertising

Kemerovo Weather History for the Previous 24 Hours

Scroll right to see more
 ConditionsComfort  
Time TempWeatherWind HumidityBarometerVisibility
3:30 PM
Fri, Jul 1
75 °FSunny.6 mph41%29.56 "Hg10 mi
3:00 PM75 °FPassing clouds.3 mph44%29.56 "HgN/A
2:30 PM75 °FPassing clouds.6 mph44%29.56 "HgN/A
2:00 PM75 °FSunny.8 mph41%29.56 "Hg10 mi
1:30 PM75 °FPassing clouds.6 mph41%29.59 "HgN/A
1:00 PM75 °FPassing clouds.6 mph41%29.59 "HgN/A
12:30 PM75 °FScattered clouds.8 mph41%29.59 "HgN/A
12:00 PM73 °FScattered clouds.6 mph38%29.59 "HgN/A
11:30 AM72 °FScattered clouds.6 mph44%29.59 "HgN/A
11:00 AM72 °FPassing clouds.8 mph47%29.59 "HgN/A
10:30 AM70 °FPassing clouds.6 mph50%29.59 "HgN/A
10:00 AM70 °FPassing clouds.3 mph57%29.59 "HgN/A
9:30 AM70 °FPassing clouds.3 mph57%29.59 "HgN/A
9:00 AM68 °FPassing clouds.3 mph56%29.59 "HgN/A
8:30 AM66 °FPassing clouds.1 mph64%29.59 "HgN/A
8:00 AM64 °FPassing clouds.3 mph68%29.59 "HgN/A
7:30 AM64 °FPassing clouds.8 mph64%29.59 "HgN/A
7:00 AM63 °FPassing clouds.3 mph68%29.59 "HgN/A
6:30 AM59 °FSunny.1 mph72%29.59 "Hg10 mi
6:00 AM57 °FSunny.8 mph77%29.59 "Hg10 mi
5:30 AM57 °FClear.8 mph82%29.59 "Hg10 mi
5:00 AM59 °FClear.6 mph77%29.59 "Hg10 mi
4:30 AM61 °FPassing clouds.6 mph77%29.59 "HgN/A
4:00 AM61 °FPassing clouds.8 mph83%29.59 "HgN/A
3:30 AM61 °FPassing clouds.6 mph83%29.59 "HgN/A
3:00 AM61 °FPassing clouds.1 mph83%29.59 "HgN/A
2:30 AM61 °FPassing clouds.3 mph83%29.59 "HgN/A
2:00 AM63 °FPassing clouds.3 mph77%29.59 "HgN/A
1:30 AM63 °FPassing clouds.3 mph77%29.59 "HgN/A
1:00 AM63 °FPassing clouds.3 mph77%29.59 "HgN/A
12:30 AM63 °FPassing clouds.3 mph83%29.59 "HgN/A
12:00 AM63 °FPassing clouds.3 mph83%29.62 "HgN/A
11:30 PM
Thu, Jun 30
63 °FPassing clouds.3 mph77%29.62 "HgN/A
11:00 PM63 °FPassing clouds.3 mph77%29.62 "HgN/A
10:30 PM64 °FPartly sunny.1 mph73%29.62 "HgN/A
10:00 PM64 °FPartly sunny.3 mph73%29.62 "HgN/A
9:30 PM64 °FPartly sunny.1 mph73%29.59 "HgN/A
9:00 PM66 °FPartly sunny.6 mph68%29.59 "HgN/A
8:30 PM66 °FPartly sunny.8 mph68%29.59 "HgN/A
8:00 PM70 °FPartly sunny.13 mph64%29.59 "HgN/A
7:30 PM73 °FThunderstorms. Partly sunny.8 mph53%29.59 "HgN/A
7:00 PM73 °FThunderstorms. Partly sunny.8 mph53%29.59 "HgN/A
6:30 PM75 °FScattered clouds.8 mph47%29.59 "HgN/A
6:00 PM75 °FScattered clouds.8 mph50%29.59 "HgN/A
5:30 PM75 °FScattered clouds.8 mph54%29.59 "HgN/A
5:00 PM75 °FScattered clouds.10 mph57%29.59 "HgN/A
4:30 PM77 °FScattered clouds.10 mph54%29.59 "HgN/A
4:00 PM75 °FScattered clouds.15 mph54%29.59 "HgN/A
Weather by CustomWeather, © 2016

See weather overviewHow to use our weather pages